Regional Weather Roundup
Issued by NWS Cleveland, OH

Home | Current Version | Previous Version | Text Only | Print | Product List | Glossary Off
Versions: 1 2 3 4 5 6 7 8 9 10 11 12 13 14 15 16 17 18 19 20 21 22 23 24 25 26 27 28 29 30 31 32 33 34 35 36 37 38 39 40 41 42 43 44 45 46 47 48 49 50

000
ASUS41 KCLE 040500
RWRCLE
OHIO REGIONAL WEATHER ROUNDUP
NATIONAL WEATHER SERVICE WILMINGTON, OH
100 AM EDT FRI SEP 04 2015

NOTE: "FAIR" INDICATES FEW OR NO CLOUDS BELOW 12,000 FEET WITH NO
SIGNIFICANT WEATHER AND/OR OBSTRUCTIONS TO VISIBILITY.

OHZ001>008-015>018-024>027-034-035-043-044-040600-
   NORTHWEST OHIO

CITY           SKY/WX    TMP DP  RH WIND       PRES   REMARKS
DEFIANCE       MOCLDY    77  68  73 N5        29.93R
FINDLAY        LGT RAIN  74  66  76 SE14      29.95R
TOLEDO EXPRESS CLOUDY    69  68  96 CALM      29.95R
TOLEDO EXEC    TSTM      69  65  86 E14       29.97R FOG
LIMA           MOCLDY    76  68  76 S3        29.96R
$$

OHZ009>014-019>023-028>033-038-089-040600-
   NORTHEAST OHIO

CITY           SKY/WX    TMP DP  RH WIND       PRES   REMARKS
CLE-HOPKINS    LGT RAIN  68  65  90 S7        30.01F
CLE-LAKEFRONT  LGT RAIN  70  66  87 VRB3      29.98F
CUY CO. ARPT   NOT AVBL
LORAIN-ELYRIA  LGT RAIN  66  64  93 S3        30.01F
ASHTABULA      MOCLDY    67  66  97 CALM      30.02R
AKRON-CANTON   CLOUDY    68  63  84 N5        30.03F
WOOSTER        NOT AVBL
MANSFIELD      CLOUDY    67  66  97 SE8       30.01F
YOUNGSTOWN     CLOUDY    67  66  97 W8        30.02R FOG
$$

OHZ042-051>053-060>062-070>072-077>081-040600-
  SOUTHWEST OHIO

CITY           SKY/WX    TMP DP  RH WIND       PRES   REMARKS
CINC-COVINGTON CLEAR     71  67  87 CALM      29.98S
CINC-LUNKEN    CLEAR     68  68 100 CALM      29.98R FOG
HAMILTON       CLEAR     69  67  93 CALM      29.98S
DAYTON         NOT AVBL
WRIGHT-PAT AFB CLEAR     73  69  86 SE2       29.96F
DAYTON GENERAL CLEAR     74  65  73 S3        29.97F
WILMINGTON     CLEAR     70  67  90 E3        29.98S
$$

OHZ036-037-039>041-045>050-054>059-063>069-073>076-082>088-040600-
  CENTRAL AND SOUTHEAST OHIO

CITY           SKY/WX    TMP DP  RH WIND       PRES   REMARKS
COLUMBUS       PTCLDY    68  66  93 E5        29.97F
OSU AIRPORT    MOCLDY    71  67  87 SE3       29.98S
BOLTON FIELD   NOT AVBL
RICKENBACK AFB NOT AVBL
NEWARK         MOCLDY    68  65  90 N7        30.00R
MARION         CLOUDY    69  66  90 E10       29.99F
LANCASTER      PTCLDY    67  64  90 CALM      29.99S
ZANESVILLE     PTCLDY    67  65  93 SE3       30.00S
NEW PHILLY     MOCLDY    68  67  96 CALM      30.03R FOG
$$


USA.gov is the U.S. government's official web portal to all federal, state and local government web resources and services.